• In Hungary
  • List of Countries
  • For 7 days
  • Water Temperature
  • Satellite Maps
  • Weather Map
  • News
  • Weather Widgets
  • user-avatar
    Login

    Hourly Weather Kawagoe

    Today, 24 September, Monday

    Time Temperature Precipitation Wind Pressure Humidity
    00:00 +26°C° 0 mm 2 mps 760 mmHg 75%
    01:00 +26°C° 0 mm 1 mps 760 mmHg 76%
    02:00 +26°C° 0 mm 1 mps 759 mmHg 77%
    03:00 +24°C° 0 mm 0 mps 759 mmHg 78%
    04:00 +26°C° 0 mm 1 mps 759 mmHg 78%
    05:00 +26°C° 0 mm 1 mps 759 mmHg 78%
    06:00 +26°C° 0 mm 1 mps 760 mmHg 78%
    07:00 +27°C° 0 mm 1 mps 759 mmHg 74%
    08:00 +28°C° 0 mm 1 mps 759 mmHg 71%
    09:00 +27°C° 0 mm 1 mps 759 mmHg 74%
    10:00 +28°C° 0.1 mm 2 mps 759 mmHg 71%
    11:00 +29°C° 0.1 mm 2 mps 759 mmHg 67%
    12:00 +30°C° 0.1 mm 2 mps 758 mmHg 64%
    13:00 +31°C° 0.4 mm 2 mps 758 mmHg 62%
    14:00 +31°C° 0.4 mm 2 mps 758 mmHg 60%
    15:00 +29°C° 0 mm 2 mps 758 mmHg 68%
    16:00 +29°C° 0.2 mm 2 mps 758 mmHg 69%
    17:00 +29°C° 0.2 mm 1 mps 758 mmHg 70%
    18:00 +29°C° 0.2 mm 1 mps 759 mmHg 70%
    19:00 +28°C° 0.5 mm 1 mps 759 mmHg 72%
    20:00 +28°C° 0.5 mm 1 mps 759 mmHg 74%
    21:00 +27°C° 0.5 mm 1 mps 759 mmHg 76%
    22:00 +27°C° 0.4 mm 1 mps 759 mmHg 77%
    23:00 +27°C° 0.4 mm 1 mps 759 mmHg 78%

    Tomorrow, 25 September, Tuesday

    Time Temperature Precipitation Wind Pressure Humidity
    00:00 +27°C° 0.4 mm 1 mps 759 mmHg 79%
    01:00 +26°C° 0.4 mm 1 mps 759 mmHg 79%
    02:00 +26°C° 0.4 mm 1 mps 759 mmHg 79%
    03:00 +26°C° 0.4 mm 1 mps 759 mmHg 79%
    04:00 +26°C° 0.1 mm 1 mps 759 mmHg 78%
    05:00 +26°C° 0.1 mm 1 mps 759 mmHg 77%
    06:00 +26°C° 0.1 mm 1 mps 759 mmHg 76%
    07:00 +26°C° 0.2 mm 2 mps 759 mmHg 72%
    08:00 +27°C° 0.2 mm 2 mps 759 mmHg 67%
    09:00 +28°C° 0.2 mm 3 mps 759 mmHg 63%
    10:00 +28°C° 0.5 mm 3 mps 759 mmHg 63%
    11:00 +27°C° 0.5 mm 3 mps 759 mmHg 63%
    12:00 +27°C° 0.5 mm 4 mps 759 mmHg 63%
    13:00 +26°C° 1.1 mm 4 mps 759 mmHg 66%
    14:00 +26°C° 1.1 mm 4 mps 759 mmHg 70%
    15:00 +25°C° 1.1 mm 3 mps 759 mmHg 73%
    16:00 +24°C° 1.5 mm 3 mps 759 mmHg 75%
    17:00 +24°C° 1.5 mm 3 mps 759 mmHg 76%
    18:00 +24°C° 1.5 mm 3 mps 759 mmHg 77%
    19:00 +22°C° 0.2 mm 3 mps 759 mmHg 77%
    20:00 +22°C° 0.2 mm 3 mps 760 mmHg 77%
    21:00 +23°C° 0.2 mm 2 mps 760 mmHg 77%
    22:00 +23°C° 0.2 mm 2 mps 760 mmHg 77%
    23:00 +23°C° 0.2 mm 2 mps 760 mmHg 78%

    Day after tomorrow, 26 September, Wednesday

    Time Temperature Precipitation Wind Pressure Humidity
    00:00 +23°C° 0.2 mm 2 mps 760 mmHg 78%
    01:00 +22°C° 0.1 mm 3 mps 760 mmHg 79%
    02:00 +22°C° 0.1 mm 3 mps 759 mmHg 79%
    03:00 +22°C° 0.1 mm 3 mps 759 mmHg 79%
    04:00 +22°C° 0.1 mm 3 mps 760 mmHg 79%
    05:00 +22°C° 0.1 mm 3 mps 760 mmHg 79%
    06:00 +22°C° 0.1 mm 3 mps 760 mmHg 79%
    07:00 +22°C° 0.1 mm 3 mps 760 mmHg 78%
    08:00 +22°C° 0.1 mm 3 mps 760 mmHg 77%
    09:00 +22°C° 0.1 mm 4 mps 761 mmHg 75%
    10:00 +22°C° 0 mm 3 mps 760 mmHg 73%
    11:00 +22°C° 0 mm 3 mps 760 mmHg 72%
    12:00 +24°C° 0 mm 3 mps 760 mmHg 70%
    13:00 +24°C° 0 mm 3 mps 760 mmHg 68%
    14:00 +24°C° 0 mm 3 mps 759 mmHg 67%
    15:00 +24°C° 0 mm 3 mps 759 mmHg 66%
    16:00 +23°C° 0.3 mm 4 mps 759 mmHg 68%
    17:00 +22°C° 0.3 mm 4 mps 759 mmHg 70%
    18:00 +22°C° 0.3 mm 4 mps 760 mmHg 72%
    19:00 +22°C° 1.6 mm 4 mps 760 mmHg 74%
    20:00 +21°C° 1.6 mm 4 mps 760 mmHg 76%
    21:00 +21°C° 1.6 mm 3 mps 760 mmHg 78%
    22:00 +21°C° 2.1 mm 4 mps 760 mmHg 78%
    23:00 +20°C° 2.1 mm 4 mps 760 mmHg 79%

    27 September, Thursday

    Time Temperature Precipitation Wind Pressure Humidity
    00:00 +20°C° 2.1 mm 4 mps 759 mmHg 79%
    01:00 +20°C° 1.4 mm 4 mps 759 mmHg 79%
    02:00 +20°C° 1.4 mm 4 mps 759 mmHg 78%
    03:00 +20°C° 1.4 mm 4 mps 759 mmHg 78%
    04:00 +19°C° 0.9 mm 4 mps 759 mmHg 77%
    05:00 +19°C° 0.9 mm 4 mps 759 mmHg 77%
    06:00 +19°C° 0.9 mm 4 mps 759 mmHg 77%
    07:00 +19°C° 1 mm 4 mps 759 mmHg 77%
    08:00 +19°C° 1 mm 4 mps 759 mmHg 77%
    09:00 +19°C° 1 mm 4 mps 759 mmHg 77%
    10:00 +20°C° 0.8 mm 4 mps 759 mmHg 76%
    11:00 +20°C° 0.8 mm 4 mps 759 mmHg 76%
    12:00 +20°C° 0.8 mm 4 mps 758 mmHg 76%
    13:00 +20°C° 1.4 mm 4 mps 758 mmHg 76%
    14:00 +19°C° 1.4 mm 4 mps 757 mmHg 77%
    15:00 +19°C° 1.4 mm 4 mps 757 mmHg 77%
    16:00 +19°C° 2.4 mm 4 mps 757 mmHg 78%
    17:00 +19°C° 2.4 mm 4 mps 757 mmHg 79%
    18:00 +19°C° 2.4 mm 4 mps 757 mmHg 80%
    19:00 +19°C° 1.2 mm 4 mps 757 mmHg 79%
    20:00 +19°C° 1.2 mm 4 mps 757 mmHg 79%
    21:00 +19°C° 1.2 mm 4 mps 758 mmHg 79%
    22:00 +19°C° 1.2 mm 3 mps 757 mmHg 79%
    23:00 +18°C° 1.2 mm 3 mps 757 mmHg 79%

    28 September, Friday

    Time Temperature Precipitation Wind Pressure Humidity
    00:00 +18°C° 1.2 mm 3 mps 757 mmHg 79%
    01:00 +18°C° 0.4 mm 3 mps 757 mmHg 79%
    02:00 +18°C° 0.4 mm 3 mps 757 mmHg 78%
    03:00 +18°C° 0.4 mm 2 mps 757 mmHg 78%
    04:00 +18°C° 0 mm 2 mps 757 mmHg 78%
    05:00 +18°C° 0 mm 2 mps 757 mmHg 77%
    06:00 +18°C° 0 mm 2 mps 757 mmHg 77%
    07:00 +20°C° 0 mm 2 mps 758 mmHg 71%
    08:00 +22°C° 0 mm 1 mps 758 mmHg 66%
    09:00 +23°C° 0 mm 1 mps 758 mmHg 60%
    10:00 +25°C° 0 mm 1 mps 758 mmHg 56%
    11:00 +26°C° 0 mm 1 mps 758 mmHg 52%
    12:00 +27°C° 0 mm 1 mps 758 mmHg 48%
    13:00 +27°C° 0 mm 1 mps 758 mmHg 47%
    14:00 +28°C° 0 mm 2 mps 758 mmHg 46%
    15:00 +28°C° 0 mm 2 mps 757 mmHg 45%
    16:00 +27°C° 0 mm 2 mps 758 mmHg 49%
    17:00 +26°C° 0 mm 2 mps 759 mmHg 52%
    18:00 +25°C° 0 mm 3 mps 759 mmHg 56%
    19:00 +25°C° 0 mm 3 mps 760 mmHg 59%
    20:00 +24°C° 0 mm 3 mps 760 mmHg 63%
    21:00 +24°C° 0 mm 3 mps 761 mmHg 67%
    22:00 +22°C° 0.1 mm 3 mps 761 mmHg 69%
    23:00 +22°C° 0.1 mm 3 mps 760 mmHg 72%

    29 September, Saturday

    Time Temperature Precipitation Wind Pressure Humidity
    00:00 +23°C° 0.1 mm 2 mps 760 mmHg 74%
    01:00 +23°C° 0.1 mm 2 mps 760 mmHg 75%
    02:00 +23°C° 0.1 mm 2 mps 760 mmHg 75%
    03:00 +23°C° 0.1 mm 2 mps 760 mmHg 76%
    04:00 +23°C° 0.1 mm 2 mps 760 mmHg 77%
    05:00 +21°C° 0.1 mm 2 mps 761 mmHg 77%
    06:00 +21°C° 0.1 mm 2 mps 761 mmHg 78%
    07:00 +23°C° 0.1 mm 2 mps 761 mmHg 75%
    08:00 +24°C° 0.1 mm 2 mps 761 mmHg 73%
    09:00 +24°C° 0.1 mm 2 mps 761 mmHg 70%
    10:00 +25°C° 0.1 mm 2 mps 760 mmHg 67%
    11:00 +26°C° 0.1 mm 2 mps 760 mmHg 63%
    12:00 +27°C° 0.1 mm 3 mps 759 mmHg 60%
    13:00 +27°C° 0.1 mm 3 mps 759 mmHg 60%
    14:00 +27°C° 0.1 mm 3 mps 758 mmHg 60%
    15:00 +27°C° 0.1 mm 4 mps 758 mmHg 60%
    16:00 +27°C° 0.1 mm 4 mps 758 mmHg 63%
    17:00 +26°C° 0.1 mm 4 mps 759 mmHg 66%
    18:00 +25°C° 0.1 mm 3 mps 759 mmHg 69%
    19:00 +25°C° 0 mm 3 mps 759 mmHg 70%
    20:00 +25°C° 0 mm 3 mps 759 mmHg 71%
    21:00 +25°C° 0 mm 3 mps 759 mmHg 72%
    22:00 +25°C° 0.1 mm 3 mps 758 mmHg 73%
    23:00 +25°C° 0.1 mm 3 mps 758 mmHg 74%
    Show more